TimeMST,TemperatureF,Dew PointF,Humidity,Sea Level PressureIn,VisibilityMPH,Wind Direction,Wind SpeedMPH,Gust SpeedMPH,PrecipitationIn,Events,Conditions,WindDirDegrees,DateUTC
12:53 AM,43.0,21.9,43,29.80,10.0,North,3.5,-,N/A,,Clear,350,2012-11-08 07:53:00
1:53 AM,41.0,24.1,51,29.81,10.0,Calm,Calm,-,N/A,,Clear,0,2012-11-08 08:53:00
2:53 AM,42.1,28.9,60,29.83,10.0,Calm,Calm,-,N/A,,Clear,0,2012-11-08 09:53:00
3:53 AM,41.0,28.0,60,29.84,10.0,NW,6.9,-,N/A,,Partly Cloudy,310,2012-11-08 10:53:00
4:53 AM,39.9,26.1,58,29.89,10.0,North,3.5,-,N/A,,Clear,10,2012-11-08 11:53:00
5:53 AM,33.1,24.1,70,29.93,10.0,Calm,Calm,-,N/A,,Clear,0,2012-11-08 12:53:00
6:53 AM,32.0,23.0,69,29.95,10.0,East,3.5,-,N/A,,Clear,100,2012-11-08 13:53:00
7:53 AM,35.1,24.1,64,29.95,10.0,Calm,Calm,-,N/A,,Clear,0,2012-11-08 14:53:00
8:53 AM,39.9,26.1,58,29.94,10.0,NNE,3.5,-,N/A,,Clear,30,2012-11-08 15:53:00
9:53 AM,44.1,26.1,49,29.91,10.0,NNW,3.5,-,N/A,,Clear,340,2012-11-08 16:53:00
10:53 AM,46.0,27.0,47,29.86,10.0,NE,3.5,-,N/A,,Clear,40,2012-11-08 17:53:00
11:53 AM,48.0,27.0,44,29.80,10.0,Calm,Calm,-,N/A,,Clear,0,2012-11-08 18:53:00
12:53 PM,51.1,27.0,39,29.74,10.0,North,4.6,-,N/A,,Clear,10,2012-11-08 19:53:00
1:53 PM,53.1,26.1,35,29.70,10.0,North,4.6,-,N/A,,Clear,10,2012-11-08 20:53:00
2:53 PM,53.1,26.1,35,29.68,10.0,North,10.4,-,N/A,,Clear,360,2012-11-08 21:53:00
3:53 PM,52.0,26.1,37,29.67,10.0,North,5.8,-,N/A,,Clear,360,2012-11-08 22:53:00
4:53 PM,48.0,26.1,42,29.69,10.0,North,8.1,-,N/A,,Clear,360,2012-11-08 23:53:00
5:53 PM,42.1,26.1,53,29.77,10.0,North,16.1,24.2,N/A,,Clear,360,2012-11-09 00:53:00
6:53 PM,37.0,26.1,65,29.78,10.0,North,8.1,-,N/A,,Clear,10,2012-11-09 01:53:00
7:53 PM,34.0,25.0,70,29.78,10.0,NNW,3.5,-,N/A,,Clear,330,2012-11-09 02:53:00
8:53 PM,28.0,21.9,78,29.79,10.0,ESE,3.5,-,N/A,,Clear,110,2012-11-09 03:53:00
9:53 PM,28.0,23.0,81,29.78,10.0,ENE,5.8,-,N/A,,Clear,70,2012-11-09 04:53:00
10:53 PM,26.1,21.9,84,29.77,8.0,ENE,5.8,-,N/A,,Clear,70,2012-11-09 05:53:00
11:53 PM,24.1,21.0,88,29.75,7.0,Calm,Calm,-,N/A,,Clear,0,2012-11-09 06:53:00